User: anonymous   Login
Location: Peebles
(55.6412°N, 3.1714°W)
Time: 03:44:58
(UTC+00:00)
Language:

Cosmos 1821 Rocket - Orbit

View from above orbital plane
View from above orbital plane
View from above satellite
View from above satellite

Ground track
Ground track

The orbit data is extracted from the following two-line orbital elements,

1 17526U 87017B   21333.53972299  .00000013  00000-0 -31434-5 0  9997
2 17526  82.9017 264.7056 0041804  89.9570 270.6377 13.76913943730148
Epoch (UTC): 29 November 2021 12:57:12
Eccentricity: 0.0041804
inclination: 82.9017°
perigee height: 944 km
apogee height: 1005 km
right ascension of ascending node: 264.7056°
argument of perigee: 89.9570°
revolutions per day: 13.76913943
mean anomaly at epoch: 270.6377°
orbit number at epoch: 73014

The dashed part of the orbit path shows where the satellite is in the earth's shadow,  

DLR